Location: Utrecht
(52.0907°N, 5.1214°E)
Time: 17:28:19
(UTC+02:00)

DIWATA 2B (PO-101) - Pass Details

Date: 09 July 2022
Orbit: 583 x 599 km, 98.0° (Epoch: 07 August)

Event Time Altitude Azimuth Distance (km) Brightness Sun altitude
Rises 01:34:33 0° 106° (ESE) 2,844 ? -15.5°
Reaches altitude 10° 01:37:59 10° 76° (ENE) 1,946 ? -15.5°
Maximum altitude 01:39:36 12° 53° (NE) 1,816 ? -15.5°
Drops below altitude 10° 01:41:13 10° 31° (NNE) 1,949 ? -15.5°
Sets 01:44:39 0° 0° (N) 2,855 ? -15.5°
